Irving, TX

1:02 AM CST on February 14, 2016 (GMT -0600)
Dallas-Fort Worth International

Weather History for KDFW - June, 2012

Change the Weather History Date:

Wednesday, June 13, 2012

  Actual Average Record
Temperature  
Mean Temperature 81 °F 81 °F  
Max Temperature 91 °F 91 °F 102 °F (1924)
Min Temperature 70 °F 71 °F 59 °F (1979)
Degree Days  
Heating Degree Days 0 0  
Month to date heating degree days 0 0  
Since 1 June heating degree days 0 0  
Since 1 July heating degree days 1777 2284  
Cooling Degree Days 16 16  
Month to date cooling degree days 218 192  
Year to date cooling degree days 905 614  
Since 1 June cooling degree days 218 192  
Growing Degree Days 30 (Base 50)    
Moisture  
Dew Point 67 °F    
Average Humidity 67    
Maximum Humidity 87    
Minimum Humidity 47    
Precipitation  
Precipitation 0.70 in 0.13 in 1.82 in (1989)
Month to date precipitation 2.49 1.80  
Year to date precipitation 22.19 18.05  
Sea Level Pressure  
Sea Level Pressure 29.93 in    
Wind  
Wind Speed 9 mph (SE)    
Max Wind Speed 18 mph    
Max Gust Speed 22 mph    
Visibility 9 miles    
Events Rain , Hail , Thunderstorm    
T = Trace of Precipitation, MM = Missing Value Source: NWS Daily Summary

Daily Weather History Graph

Daily Weather History Graph

Search for Another Location

Airport or City:

Trip Planner

Search our weather history database for the weather conditions in past years. The results will help you decide how hot, cold, wet, or windy it might be!

Date:

Astronomy

Jun. 13, 2012 Rise Set
Actual Time 6:19 AM CDT 8:37 PM CDT
Civil Twilight 5:50 AM CDT 9:06 PM CDT
Nautical Twilight 5:15 AM CDT 9:41 PM CDT
Astronomical Twilight 4:37 AM CDT 10:19 PM CDT
Moon 2:20 AM CDT (6/13) 3:36 PM CDT (6/13)
Length of Visible Light 15h 15m
Length of Day
14h 18m
Waning Crescent, 29% of the Moon is Illuminated
Jun 13
Waning Crescent
Jun 19
New
Jun 26
First Quarter
Jul 3
Full
Jul 10
Last Quarter

Hourly Weather History & Observations

Time (CDT) Temp. Heat Index Dew Point Humidity Pressure Visibility Wind Dir Wind Speed Gust Speed Precip Events Conditions
12:53 AM 72.0 °F - 64.0 °F 76% 29.98 in 10.0 mi South 5.8 mph - N/A   Mostly Cloudy
1:53 AM 72.0 °F - 64.0 °F 76% 29.94 in 10.0 mi ESE 4.6 mph - N/A   Mostly Cloudy
2:53 AM 70.0 °F - 64.9 °F 84% 29.95 in 10.0 mi SE 4.6 mph - N/A   Overcast
3:53 AM 71.1 °F - 64.9 °F 81% 29.96 in 10.0 mi SE 5.8 mph - N/A   Overcast
4:53 AM 71.6 °F - 66.2 °F 83% 30.01 in 10.0 mi SSE 5.8 mph - N/A   Overcast
5:53 AM 71.1 °F - 64.0 °F 78% 29.99 in 10.0 mi South 9.2 mph - N/A   Overcast
6:53 AM 72.0 °F - 64.9 °F 78% 30.06 in 10.0 mi WSW 8.1 mph - N/A   Overcast
7:06 AM 73.4 °F - 64.4 °F 73% 30.08 in 10.0 mi West 8.1 mph - 0.00 in Rain , Thunderstorm Light Thunderstorms and Rain
7:20 AM 73.4 °F - 64.4 °F 73% 30.09 in 10.0 mi West 10.4 mph - 0.00 in Thunderstorm Thunderstorm
7:53 AM 73.0 °F - 64.0 °F 73% 30.05 in 10.0 mi WSW 5.8 mph - 0.00 in Thunderstorm Thunderstorm
8:13 AM 73.4 °F - 64.4 °F 73% 30.05 in 10.0 mi SW 3.5 mph - N/A   Overcast
8:53 AM 73.0 °F - 64.0 °F 73% 29.99 in 10.0 mi South 5.8 mph - N/A   Overcast
9:53 AM 73.0 °F - 64.0 °F 73% 29.94 in 10.0 mi SSE 12.7 mph - N/A   Overcast
10:53 AM 75.0 °F - 64.0 °F 69% 29.93 in 10.0 mi SSE 13.8 mph - N/A   Mostly Cloudy
11:53 AM 77.0 °F - 64.9 °F 66% 29.92 in 10.0 mi SE 12.7 mph - N/A   Mostly Cloudy
12:53 PM 82.9 °F 85.4 °F 66.9 °F 58% 29.92 in 10.0 mi SE 9.2 mph - N/A   Scattered Clouds
1:53 PM 86.0 °F 89.4 °F 68.0 °F 55% 29.91 in 10.0 mi ESE 8.1 mph - N/A   Scattered Clouds
2:53 PM 88.0 °F 91.4 °F 68.0 °F 51% 29.88 in 10.0 mi ESE 12.7 mph 19.6 mph N/A   Mostly Cloudy
3:53 PM 88.0 °F 90.7 °F 66.9 °F 49% 29.87 in 10.0 mi SSE 6.9 mph 16.1 mph N/A   Mostly Cloudy
4:53 PM 90.0 °F 92.8 °F 66.9 °F 46% 29.85 in 10.0 mi South 12.7 mph - N/A   Mostly Cloudy
5:53 PM 88.0 °F 90.7 °F 66.9 °F 49% 29.84 in 10.0 mi SE 9.2 mph - N/A   Mostly Cloudy
6:13 PM 87.8 °F 90.4 °F 66.2 °F 49% 29.86 in 10.0 mi SE 10.4 mph - N/A Thunderstorm Thunderstorm
6:43 PM 82.4 °F 87.2 °F 71.6 °F 70% 29.86 in 3.0 mi ENE 9.2 mph 19.6 mph 0.04 in Rain , Hail , Thunderstorm Thunderstorms with Hail
6:46 PM 78.8 °F - 71.6 °F 78% 29.86 in 2.0 mi NE 5.8 mph - 0.11 in Rain , Hail , Thunderstorm Heavy Thunderstorms with Hail
6:53 PM 78.1 °F - 73.0 °F 84% 29.85 in 1.0 mi NNW 17.3 mph - 0.30 in Rain , Thunderstorm Heavy Thunderstorms with Small Hail
6:58 PM 77.0 °F - 71.6 °F 83% 29.89 in 1.0 mi North 8.1 mph 18.4 mph 0.12 in Rain , Thunderstorm Heavy Thunderstorms with Small Hail
7:09 PM 77.0 °F - 73.4 °F 89% 29.89 in 3.0 mi Variable 3.5 mph - 0.34 in Rain , Thunderstorm Heavy Thunderstorms and Rain
7:36 PM 78.8 °F - 73.4 °F 83% 29.87 in 7.0 mi SE 9.2 mph - 0.40 in Rain Light Rain
7:53 PM 77.0 °F - 72.0 °F 84% 29.86 in 10.0 mi SE 6.9 mph - 0.40 in   Mostly Cloudy
8:53 PM 75.0 °F - 71.1 °F 87% 29.87 in 10.0 mi ESE 6.9 mph - 0.00 in   Mostly Cloudy
9:53 PM 75.0 °F - 70.0 °F 84% 29.87 in 10.0 mi ESE 4.6 mph - N/A   Mostly Cloudy
10:53 PM 75.9 °F - 71.1 °F 85% 29.87 in 10.0 mi East 5.8 mph - N/A   Scattered Clouds
11:53 PM 77.0 °F - 71.1 °F 82% 29.87 in 10.0 mi East 8.1 mph - N/A   Partly Cloudy